Volver al catálogo

SHIYAN 26C

ActivoCienciaSSO
NORAD 61903·PAYLOAD·🇨🇳 China
Este nombre de satélite aún no ha sido confirmado por fuentes oficiales.

Lanzado Nov 11, 2024 desde Jiuquan Satellite Launch Center

Loading…

Próximos Pases (próximas 24 horas)

TLE

ActualizadoSource: Space-Track

Época: Sep 14, 2026, 13:11 UTC

1 61903U 24205K   26257.54945111  .00011270  00000-0  35677-3 0  9996
2 61903  97.4037 334.5083 0010469  82.5044 277.7387 15.32868573102327

Sigue SHIYAN 26C en tiempo real con AllMySat

Download on the App Store